Weather in Icmeler

Turkey     36°48′02″N   28°14′08″E
temp.,
°C
wind,
m/s
gust,
m/s
humid.,
%
clouds,
%
prec.,
mm/h
press.,
hPa
HPBL,
m
1 august, sun
sun100:00+28nnw22490 0.0 100512
03:00+29nnw55360 0.0 100540
06:00+29n55380 0.0 100544
09:00+34n69280 0.0 1006676
12:00+36n57250 0.0 10051302
15:00+38n69220 0.0 10041587
18:00+35wnw811341 0.0 1003675
21:00+28nnw23614 0.0 100444
2 august, mon
mon200:00+29n33450 0.0 100517
03:00+29nnw44360 0.0 100429
06:00+28nnw56380 0.0 100448
09:00+33nnw46300 0.0 1005258
12:00+36nne47240 0.0 1005943
15:00+39n47240 0.0 10031365
18:00+33e67460 0.0 1003622
21:00+28ene33620 0.0 100435
3 august, tue
tue300:00+29nnw22410 0.0 100511
03:00+28nnw44350 0.0 100529
06:00+28nnw56330 0.0 100645
09:00+34n58250 0.0 1007370
12:00+38nne59200 0.0 10061171
15:00+39nne57230 0.0 10041666
18:00+32e44530 0.0 1004214
21:00+28e46660 0.0 100576
4 august, wed
wed400:00+29nne22420 0.0 100612
03:00+29nnw33360 0.0 100612
06:00+29nne22400 0.0 100613
09:00+33nw12330 0.0 1007143
12:00+38wsw33250 0.0 10061040
15:00+37wsw67290 0.0 1005430
18:00+31ese55530 0.0 1007209
21:00+28e33600 0.0 100726
5 august, thu
thu500:00+29n33430 0.0 100712
03:00+29nw33410 0.0 100613
06:00+28ene22440 0.0 100612
09:00+32ne11370 0.0 1006124
12:00+35sw32320 0.0 1006572
15:00+34sw45360 0.0 1005443
18:00+31se32530 0.0 1005286
21:00+28wnw22650 0.0 100516